Weather History for Lakehurst NAS, NJ

Change the Weather History Date:

Monday, June 2, 2014

  Actual Average Record
Temperature  
Mean Temperature 62 °F -  
Max Temperature 61 °F 72 °F 92 °F (1999)
Min Temperature 41 °F 56 °F 41 °F (2014)
Degree Days  
Heating Degree Days 4    
Growing Degree Days 12 (Base 50)    
Moisture  
Dew Point 46 °F    
Average Humidity 60    
Maximum Humidity 93    
Minimum Humidity 35    
Precipitation  
Precipitation 0.00 in - - ()
Sea Level Pressure  
Sea Level Pressure 30.20 in    
Wind  
Wind Speed 3 mph (WSW)    
Max Wind Speed 12 mph    
Max Gust Speed 18 mph    
Visibility 7 miles    
Events      
Averages and records for this station are not official NWS values.
T = Trace of Precipitation, MM = Missing Value Source: NWS Daily Summary

Daily Weather History Graph

Daily Weather History Graph

Search for Another Location

Airport:

Trip Planner

Search our weather history database for the weather conditions in past years. The results will help you decide how hot, cold, wet, or windy it might be!

Date:

Astronomy

Jun. 02, 2014 Rise Set
Actual Time 5:30 AM EDT 8:21 PM EDT
Civil Twilight 4:57 AM EDT 8:53 PM EDT
Nautical Twilight 4:17 AM EDT 9:33 PM EDT
Astronomical Twilight 3:30 AM EDT 10:20 PM EDT
Moon 9:55 AM EDT (6/2) 11:48 PM EDT (6/2)
Length of Visible Light 15h 55m
Length of Day
14h 50m
Waxing Crescent, 21% of the Moon is Illuminated
Jun 2
Waxing Crescent
Jun 5
First Quarter
Jun 13
Full
Jun 19
Last Quarter
Jun 27
New

Hourly Weather History & Observations

Time (EDT) Temp. Heat Index Dew Point Humidity Pressure Visibility Wind Dir Wind Speed Gust Speed Precip Events Conditions
12:00 AM 50.0 °F - 43.0 °F 77% 30.28 in 3.0 mi Calm Calm - N/A   Haze
12:44 AM 48.2 °F - 41.0 °F 76% 30.29 in 1.8 mi Calm Calm - N/A   Haze
12:49 AM 48.2 °F - 42.8 °F 82% 30.29 in 3.0 mi Calm Calm - N/A   Haze
1:00 AM 48.9 °F - 41.0 °F 74% 30.28 in 10.0 mi Calm Calm - N/A   Clear
2:00 AM 46.0 °F - 39.9 °F 79% 30.28 in 4.0 mi Calm Calm - N/A   Haze
3:00 AM 46.0 °F - 42.1 °F 86% 30.27 in 10.0 mi Calm Calm - N/A   Clear
3:53 AM 42.8 °F - 39.2 °F 87% 30.27 in 1.8 mi Calm Calm - N/A   Clear
4:00 AM 42.8 °F - 39.2 °F 87% 30.27 in 2.5 mi Calm Calm - N/A   Clear
4:07 AM 41.0 °F - 39.2 °F 93% 30.27 in 10.0 mi Calm Calm - N/A   Clear
4:33 AM 42.8 °F - 39.2 °F 87% 30.26 in 2.5 mi Calm Calm - N/A   Clear
4:41 AM 42.8 °F - 39.2 °F 87% 30.26 in 10.0 mi Calm Calm - N/A   Clear
5:00 AM 43.0 °F - 39.0 °F 86% 30.26 in 10.0 mi Calm Calm - N/A   Clear
6:00 AM 43.0 °F - 41.0 °F 93% 30.25 in 10.0 mi Calm Calm - N/A   Clear
7:00 AM 53.1 °F - 46.0 °F 77% 30.25 in 10.0 mi Calm Calm - N/A   Clear
8:00 AM 62.6 °F - 44.6 °F 52% 30.26 in 0.8 mi WSW 8.1 mph - N/A   Haze
8:07 AM 62.6 °F - 44.6 °F 52% 30.26 in 8.0 mi West 10.4 mph - N/A   Clear
8:17 AM 64.4 °F - 46.4 °F 52% 30.26 in 1.8 mi West 8.1 mph - N/A   Haze
8:27 AM 64.4 °F - 48.2 °F 56% 30.26 in - West 8.1 mph - N/A   Clear
8:40 AM 64.9 °F - 48.9 °F 56% 30.25 in - West 6.9 mph - N/A   Clear
9:00 AM 68.0 °F - 48.0 °F 49% 30.25 in - West 11.5 mph - N/A   Clear
10:00 AM 71.1 °F - 43.0 °F 36% 30.23 in 10.0 mi West 10.4 mph - N/A   Clear
10:26 AM 71.6 °F - 44.6 °F 38% 30.23 in 1.8 mi WSW 8.1 mph - N/A   Haze
10:34 AM 71.6 °F - 44.6 °F 38% 30.23 in 2.0 mi West 9.2 mph - N/A   Haze
10:41 AM 73.4 °F - 44.6 °F 36% 30.22 in 10.0 mi West 9.2 mph - N/A   Clear
11:00 AM 73.9 °F - 46.9 °F 38% 30.21 in 10.0 mi WSW 10.4 mph 18.4 mph N/A   Clear
12:00 PM 77.0 °F - 48.0 °F 36% 30.19 in 10.0 mi WSW 10.4 mph - N/A   Clear
1:00 PM 78.1 °F - 48.9 °F 36% 30.17 in 10.0 mi SW 8.1 mph - N/A   Clear
2:00 PM 79.0 °F - 51.1 °F 38% 30.14 in 10.0 mi WSW 6.9 mph - N/A   Clear
3:00 PM 81.0 °F - 52.0 °F 36% 30.11 in 10.0 mi SW 10.4 mph 18.4 mph N/A   Clear
4:00 PM 82.0 °F - 52.0 °F 35% 30.08 in 10.0 mi SW 10.4 mph - N/A   Clear
5:00 PM 82.0 °F 81.2 °F 53.1 °F 37% 30.07 in 10.0 mi SW 11.5 mph - N/A   Clear
6:00 PM 81.0 °F 80.5 °F 54.0 °F 39% 30.05 in 10.0 mi West 11.5 mph - N/A   Clear
7:00 PM 78.1 °F - 53.1 °F 42% 30.05 in 10.0 mi West 9.2 mph - N/A   Clear
8:00 PM 73.9 °F - 54.0 °F 50% 30.05 in 10.0 mi WSW 6.9 mph - N/A   Clear
9:00 PM 69.1 °F - 53.1 °F 57% 30.06 in 10.0 mi South 5.8 mph - N/A   Clear
10:00 PM 66.0 °F - 52.0 °F 60% 30.06 in 10.0 mi SSW 3.5 mph - N/A   Clear
11:00 PM 63.0 °F - 50.0 °F 63% 30.05 in 10.0 mi SSW 3.5 mph - N/A   Clear